Location: Unspecified
(40.4667°N, 0.0000°E)
Time: 00:00:12
(UTC+00:00)

ISS - Pass Details

Date: 22 May 2019
Orbit: 407 x 418 km, 51.6° (Epoch: 27 June)

Event Time Altitude Azimuth Distance (km) Brightness Sun altitude
Rises 00:35:40 0° 312° (NW) 2,368 0.5 -28.6°
Reaches altitude 10° 00:38:02 10° 327° (NNW) 1,504 -0.4 -28.5°
Enters shadow 00:38:55 15° 338° (NNW) 1,233 -0.8 -28.4°
